Location: Unspecified
(0.0000°N, 0.0000°E)
Time: 17:52:34
(UTC+00:00)

COSMOS 2416 - Pass Details

Date: 26 May 2026
Orbit: 1436 x 1449 km, 82.5° (Epoch: 10 June)

Event Time Altitude Azimuth Distance (km) Brightness Sun altitude
Rises 05:06:46 0° 182° (S) 4,542 9.0 -11.7°
Reaches altitude 10° 05:09:37 10° 181° (S) 3,563 8.5 -11.1°
Maximum altitude 05:18:10 85° 94° (E) 1,456 6.8 -9.1°
Drops below altitude 10° 05:26:43 10° 5° (N) 3,556 9.1 -7.1°
Sets 05:29:33 0° 5° (N) 4,532 9.7 -6.4°
